Вернуться в каталог

ASBM-1

АктивенВоенныеHEO
NORAD 60422·PAYLOAD·🇳🇴 Norway

Запущен Aug 12, 2024 с Vandenberg Space Force Base

Loading…

Ближайшие Пролёты (ближайшие 24 часа)

TLE

СвежийSource: Space-Track

Эпоха: Sep 7, 2026, 22:17 UTC

1 60422U 24143A   26250.92872612 -.00000040  00000-0  00000-0 0  9995
2 60422  62.9305  42.2212 5639715 269.4504  29.3738  1.50429736 12866

Отслеживайте ASBM-1 в реальном времени с AllMySat

Download on the App Store